Hourly Data Report for October 23, 2014

All times are specified in Local Standard Time (LST). Add 1 hour to adjust for Daylight Saving Time where and when it is observed.

OTTAWA INTL A
ONTARIO

45°19'00.000" N
75°40'00.000" W
114.90 m
6106001
71628
YOW

Download Data

Hourly Data (October 2014)
Hourly Data Report for October 23, 2014
Temp Definition
°C
Dew Point Temp Definition
°C
Rel Hum Definition
%
Wind Dir Definition
10's deg

Wind Spd Definition
km/h
Visibility Definition
km
Stn Press Definition
kPa
Hmdx Definition


Wind Chill Definition


Weather Definition


TIME
00:00 Legend Double Dagger 6.5 1.6 71 1 17 24.1 100.88     LegendNANA
01:00 Legend Double Dagger 6.3 1.4 71 2 16 24.1 100.85     Clear
02:00 Legend Double Dagger 5.9 1.4 73 1 16 24.1 100.78     LegendNANA
03:00 Legend Double Dagger 5.9 1.6 74 36 16 24.1 100.72     LegendNANA
04:00 Legend Double Dagger 5.5 2.0 78 36 14 24.1 100.70     Mainly Clear
05:00 Legend Double Dagger 5.5 2.0 78 35 17 24.1 100.69     LegendNANA
06:00 Legend Double Dagger 5.0 1.7 79 36 17 24.1 100.66     LegendNANA
07:00 Legend Double Dagger 5.2 1.5 77 35 16 24.1 100.64     Mainly Clear
08:00 Legend Double Dagger 5.7 1.8 76 36 17 24.1 100.62     LegendNANA
09:00 Legend Double Dagger 6.8 1.9 71 36 17 24.1 100.58     LegendNANA
10:00 Legend Double Dagger 11.5 3.8 59 3 28 24.1 100.54     Mainly Clear
11:00 Legend Double Dagger 12.2 4.7 60 2 26 24.1 100.48     LegendNANA
12:00 Legend Double Dagger 12.6 5.1 60 4 26 24.1 100.39     LegendNANA
13:00 Legend Double Dagger 12.9 6.8 66 2 19 24.1 100.32     Rain
14:00 Legend Double Dagger 12.1 7.2 72 3 26 24.1 100.31     LegendNANA
15:00 Legend Double Dagger 12.0 8.1 77 3 13 24.1 100.29     LegendNANA
16:00 Legend Double Dagger 12.8 7.7 71 35 11 24.1 100.23     Mostly Cloudy
17:00 Legend Double Dagger 13.1 6.7 65 1 13 24.1 100.23     LegendNANA
18:00 Legend Double Dagger 10.4 8.0 85 9 9 24.1 100.23     LegendNANA
19:00 Legend Double Dagger 9.6 8.2 91 17 3 24.1 100.22     Mostly Cloudy
20:00 Legend Double Dagger 8.0 7.3 95 14 5 24.1 100.24     LegendNANA
21:00 Legend Double Dagger 9.1 8.0 93 18 5 24.1 100.18     LegendNANA
22:00 Legend Double Dagger 8.4 7.7 95 23 7 24.1 100.12     Mostly Cloudy
23:00 Legend Double Dagger 8.8 8.1 95 27 10 24.1 100.09     LegendNANA

Notes on Data Quality.

Legend

  • E = Estimated
  • M = Missing
  • NA = Not Available
  • ‡ = Partner data that is not subject to review by the National Climate Archives
Date modified: